EW3719 Weather Reports


time (UTC)temp
F
wind
direction
speed
knots
gust
knots
rain 1hr
in
rain 24hr
in
rain mn
in
humidity
%
barometer
mb
20260505211524 60 266 5.2 11.3 0.00 0.12 0.12 70 1004.0
20260505210022 60 282 6.1 16.5 0.00 0.12 0.12 74 1003.5
20260505204521 62 283 8.7 15.6 0.00 0.12 0.12 73 1003.5
20260505203028 64 254 9.6 17.4 0.00 0.12 0.12 71 1003.3
20260505201519 65 240 9.6 22.6 0.00 0.12 0.12 69 1003.1
20260505200015 66 260 11.3 18.2 0.00 0.12 0.12 68 1002.7
20260505194515 66 249 10.4 21.7 0.00 0.12 0.12 68 1002.8
20260505193012 66 276 12.2 21.7 0.00 0.12 0.12 67 1002.6
20260505191512 66 257 13.9 22.6 0.00 0.12 0.12 67 1002.5
20260505190024 67 263 11.3 20.9 0.00 0.12 0.12 67 1002.5
20260505184610 66 248 13.0 23.5 0.00 0.12 0.12 68 1002.4
20260505183009 65 257 11.3 25.2 0.00 0.12 0.12 69 1002.5
20260505181508 66 255 16.5 25.2 0.00 0.12 0.12 67 1002.5
20260505180008 65 269 17.4 21.7 0.00 0.12 0.12 67 1002.5
20260505174507 65 257 13.9 21.7 0.00 0.12 0.12 68 1002.2
20260505173007 65 210 11.3 22.6 0.00 0.12 0.12 68 1002.2
20260505171506 64 274 11.3 22.6 0.00 0.12 0.12 70 1002.4
20260505170009 64 275 12.2 20.9 0.00 0.12 0.12 70 1002.5
20260505164503 65 236 16.5 31.3 0.00 0.12 0.12 68 1002.4
20260505163009 66 249 14.8 23.5 0.00 0.12 0.12 68 1002.3
20260505161502 65 246 10.4 23.5 0.00 0.12 0.12 70 1001.9
20260505153100 66 242 13.0 22.6 0.00 0.12 0.12 68 1001.5
20260505151618 66 239 13.0 26.9 0.00 0.12 0.12 68 1001.6
20260505124548 66 172 13.0 26.1 0.00 0.12 0.12 68 1000.5
20260505123040 65 224 9.6 21.7 0.00 0.12 0.12 71 1000.6
20260505121539 63 212 10.4 18.2 0.00 0.12 0.12 74 1000.7
20260505120058 63 214 10.4 18.2 0.00 0.14 0.12 75 1000.8
20260505114533 62 210 8.7 17.4 0.00 0.14 0.12 76 1000.8
20260505113035 62 205 8.7 15.6 0.00 0.14 0.12 78 1000.8
20260505111531 62 157 11.3 17.4 0.00 0.14 0.12 78 1000.7
20260505101528 59 216 7.0 13.0 0.03 0.14 0.12 85 1000.2
20260505100028 59 210 7.0 16.5 0.03 0.14 0.12 85 1000.6
20260505094527 59 228 10.4 19.1 0.03 0.14 0.12 83 1000.0
20260505093024 61 218 8.7 17.4 0.01 0.12 0.10 77 1000.6
20260505091527 62 214 8.7 15.6 0.00 0.11 0.09 72 1000.7
20260505090036 61 211 7.0 15.6 0.00 0.11 0.09 72 1000.5
20260505084518 60 171 7.0 13.9 0.00 0.11 0.09 73 1000.8
20260505083017 59 226 7.0 13.0 0.00 0.11 0.09 74 1001.1
20260505081517 59 163 4.3 9.6 0.00 0.11 0.09 75 1001.2
20260505080016 58 204 5.2 13.0 0.00 0.11 0.09 76 1001.3
20260505074515 56 207 7.0 13.0 0.03 0.11 0.09 80 1001.3
20260505073027 55 210 4.3 12.2 0.09 0.11 0.09 86 1001.3
20260505071518 54 175 4.3 8.7 0.09 0.11 0.09 90 1001.3
20260505070010 55 201 4.3 13.0 0.09 0.11 0.09 89 1001.3
20260505064518 56 214 11.3 17.4 0.05 0.07 0.05 81 1001.9
20260505063002 61 203 6.1 12.2 0.00 0.02 0.00 59 1001.1
20260505061501 61 203 3.5 11.3 0.00 0.02 0.00 58 1000.8
20260505060103 61 213 5.2 13.0 0.00 0.02 0.00 57 1001.2
20260505054625 61 150 7.0 13.9 0.00 0.02 0.00 56 1000.9
20260505053103 60 185 4.3 10.4 0.00 0.02 0.00 57 1001.3
20260505051550 60 199 3.5 7.0 0.00 0.02 0.00 58 1001.3
20260505041545 59 151 2.6 4.3 0.00 0.04 0.00 58 1001.8
20260505040040 59 149 4.3 6.1 0.00 0.05 0.04 57 1001.9
20260505034539 60 154 2.6 5.2 0.00 0.05 0.04 56 1001.8
20260505033037 60 167 2.6 7.0 0.00 0.05 0.04 56 1002.0
20260505031546 61 210 4.3 7.0 0.00 0.05 0.04 55 1002.1
20260505030036 61 151 3.5 5.2 0.00 0.05 0.04 55 1002.0
20260505024538 61 164 5.2 8.7 0.00 0.05 0.04 55 1002.2
20260505023033 60 208 3.5 7.0 0.00 0.05 0.04 57 1002.3
20260505021532 61 151 3.5 7.8 0.00 0.05 0.04 57 1002.5
20260505020034 61 145 2.6 7.0 0.00 0.05 0.04 57 1002.5
20260505014535 61 197 3.5 6.1 0.00 0.05 0.04 57 1002.5
20260505013030 61 173 1.7 6.1 0.00 0.05 0.04 57 1002.6
20260505011534 61 199 2.6 5.2 0.00 0.05 0.04 58 1002.6
20260505010029 61 207 1.7 5.2 0.00 0.05 0.04 58 1002.8
20260505004543 62 146 2.6 6.1 0.00 0.05 0.04 58 1002.7
20260505003031 62 186 2.6 7.8 0.00 0.05 0.04 58 1002.6
20260505001527 63 210 2.6 5.2 0.00 0.05 0.04 57 1002.5
20260505000039 63 161 2.6 6.1 0.00 0.05 0.04 57 1002.3
20260504234525 64 169 2.6 5.2 0.00 0.05 0.04 57 1002.4
20260504233025 65 196 3.5 8.7 0.00 0.05 0.04 54 1002.2
20260504231524 65 222 4.3 7.8 0.00 0.05 0.04 54 1002.4
20260504230023 66 214 3.5 9.6 0.00 0.05 0.04 53 1002.5
20260504224521 66 249 5.2 10.4 0.00 0.05 0.04 51 1002.4
20260504223021 67 232 4.3 13.9 0.00 0.05 0.04 50 1002.6
20260504221520 68 231 7.8 12.2 0.00 0.05 0.04 48 1002.7
20260504220019 68 231 9.6 18.2 0.00 0.05 0.04 48 1002.7
20260504214519 69 215 8.7 19.1 0.00 0.05 0.04 48 1002.8
20260504213017 69 257 11.3 18.2 0.00 0.05 0.04 49 1002.8